User: anonymous   Login
Location: Unspecified
(41.1637°N, 0.0000°E)
Time: 07:34:40
(UTC+00:00)
Language:

XW-2F - Orbit

View from above orbital plane
View from above orbital plane
View from above satellite
View from above satellite

Ground track
Ground track

The orbit data is extracted from the following two-line orbital elements,

1 40910U 15049M   19230.87163189 +.00000688 +00000-0 +37754-4 0  9993
2 40910 097.4638 233.6999 0014264 343.5295 100.8682 15.17366732216298
Epoch (UTC): 18 August 2019 20:55:08
Eccentricity: 0.0014264
inclination: 97.4638°
perigee height: 504 km
apogee height: 523 km
right ascension of ascending node: 233.6999°
argument of perigee: 343.5295°
revolutions per day: 15.17366732
mean anomaly at epoch: 100.8682°
orbit number at epoch: 21629

The dashed part of the orbit path shows where the satellite is in the earth's shadow,  

DLR